Weather in Penticton

Canada     49°29′34″N   119°36′06″W
temp.,
°C
wind,
m/s
gust,
m/s
humid.,
%
clouds,
%
prec.,
mm/h
press.,
hPa
HPBL,
m
15 april, thu
thu1523:00+2ne22590 0.0 102513
02:00+1ne21630 0.0 102513
05:000ne21710 0.0 102616
08:00+4nnw23580 0.0 1025211
11:00+11nw23370 0.0 1021771
14:00+15nnw33270 0.0 10191382
17:00+15n33280 0.0 10191208
20:00+7ene22610 0.0 102116
16 april, fri
fri1623:00+5ene21605 0.0 102312
02:00+4ene11633 0.0 102511
05:00+3ene11683 0.0 102610
08:00+7nnw11570 0.0 1026176
11:00+13w11400 0.0 1024766
14:00+17w21300 0.0 10221362
17:00+17nw21291 0.0 10211489
20:00+10ene22590 0.0 102213
17 april, sat
sat1723:00+8e21660 0.0 102311
02:00+6e11670 0.0 102410
05:00+5e11690 0.0 102410
08:00+9nnw11550 0.0 1023160
11:00+16wnw21382 0.0 1021823
14:00+20wnw12290 0.0 10201736
17:00+19n13315 0.0 10181880
20:00+12e22565 0.0 101814
18 april, sun
sun1823:00+10ese21631 0.0 102012
02:00+9ese21690 0.0 102011
05:00+7ese117242 0.0 102011
08:00+11s1159100 0.0 1019151
11:00+17wnw223953 0.0 1017863
14:00+19nnw463442 0.0 10142764
17:00+15nnw68546 0.3 10151283
20:00+7wnw3784100 0.6 1021793
19 april, mon
mon1923:00+4wnw310800 1.0 1023902
02:00+1nnw22775 0.0 102641
05:00−1n22826 0.0 102833
08:00+2nnw23676 0.0 1028473
11:00+7nnw334756 0.0 10251427
14:00+11nnw323432 0.0 10231925
17:00+12nnw32312 0.0 10201926
20:00+6ne22563 0.0 102228